This is the latest recevied weather packets stored in our database for station/object HB9FHL-13. If no packets are shown the sender has not sent any weather packets the latest 10 day(s).
| Time | Temp. | Humidity | Pressure | Rain* | Wind** | Luminosity | Snow |
|---|---|---|---|---|---|---|---|
| 1777779453 | 16.67° C | - | 1018.3 hPa | 0 mm | - | - | - |
| 1777779153 | 16.11° C | - | 1016.7 hPa | 0 mm | - | - | - |
| 1777778852 | 16.11° C | - | 1017.1 hPa | 0 mm | - | - | - |
| 1777778552 | 15.56° C | - | 1015.9 hPa | 0 mm | - | - | - |
| 1777778251 | 16.67° C | - | 1020.2 hPa | 0 mm | - | - | - |
| 1777777951 | 15.56° C | - | 1017.9 hPa | 0 mm | - | - | - |
| 1777777654 | 16.11° C | - | 1018.3 hPa | 0 mm | - | - | - |
| 1777777350 | 15.56° C | - | 1010.9 hPa | 0 mm | - | - | - |
| 1777777049 | 15.56° C | - | 1020.3 hPa | 0 mm | - | - | - |
| 1777776749 | 16.11° C | - | 1019.7 hPa | 0 mm | - | - | - |
| 1777776449 | 16.11° C | - | 1011.9 hPa | 0 mm | - | - | - |
| 1777776148 | 16.11° C | - | 1020.6 hPa | 0 mm | - | - | - |
| 1777775848 | 15° C | - | 1018.5 hPa | 0 mm | - | - | - |
| 1777775546 | 15.56° C | - | 1018.3 hPa | 0 mm | - | - | - |
| 1777775247 | 15.56° C | - | 1020.4 hPa | 0 mm | - | - | - |
| 1777774942 | 16.11° C | - | 1018.8 hPa | 0 mm | - | - | - |
| 1777774643 | 16.67° C | - | 1017.4 hPa | 0 mm | - | - | - |
| 1777774341 | 16.11° C | - | 1022.7 hPa | 0 mm | - | - | - |
| 1777774041 | 16.11° C | - | 1020.3 hPa | 0 mm | - | - | - |
| 1777773740 | 17.22° C | - | 1017.4 hPa | 0 mm | - | - | - |
| 1777773440 | 16.67° C | - | 1018.8 hPa | 0 mm | - | - | - |
| 1777773139 | 17.22° C | - | 1017.6 hPa | 0 mm | - | - | - |
| 1777772839 | 17.22° C | - | 1016.4 hPa | 0 mm | - | - | - |
| 1777772538 | 17.78° C | - | 1017.1 hPa | 0 mm | - | - | - |
| 1777772238 | 17.78° C | - | 1017.6 hPa | 0 mm | - | - | - |
* Rain since midnight (hover to see other rain measurements)
** Current wind speed in m/s (hover to see current wind gust speed)